Time,TemperatureF,DewpointF,PressureIn,WindDirection,WindDirectionDegrees,WindSpeedMPH,WindSpeedGustMPH,Humidity,HourlyPrecipIn,Conditions,Clouds,dailyrainin,SoftwareType,DateUTC
2013-02-12 00:01:00,36.0,27.0,-100.00,SSW,204,12.0,32.0,63,0.55,,,-99.99,,2013-02-12 05:01:00,
2013-02-12 00:11:00,36.0,27.0,-100.00,WSW,242,9.0,32.0,64,0.00,,,-99.99,,2013-02-12 05:11:00,
2013-02-12 00:21:00,37.0,27.0,-100.00,WSW,249,9.0,32.0,66,0.00,,,-99.99,,2013-02-12 05:21:00,
2013-02-12 00:32:00,36.0,27.0,-100.00,South,190,8.0,32.0,66,0.00,,,-99.99,,2013-02-12 05:32:00,
2013-02-12 00:42:00,37.0,28.0,-100.00,WSW,247,11.0,32.0,66,0.00,,,-99.99,,2013-02-12 05:42:00,
2013-02-12 00:52:00,36.0,25.0,-100.00,SW,234,11.0,32.0,63,0.00,,,-99.99,,2013-02-12 05:52:00,
2013-02-12 01:02:00,36.0,27.0,-100.00,WSW,237,12.0,32.0,63,0.00,,,-99.99,,2013-02-12 06:02:00,
2013-02-12 01:12:00,36.0,25.0,-100.00,SSW,211,12.0,32.0,62,0.00,,,-99.99,,2013-02-12 06:12:00,
2013-02-12 01:22:00,36.0,25.0,-100.00,WSW,251,14.0,32.0,62,0.00,,,-99.99,,2013-02-12 06:22:00,
2013-02-12 01:32:00,36.0,25.0,-100.00,SW,218,14.0,32.0,63,0.00,,,-99.99,,2013-02-12 06:32:00,
2013-02-12 01:42:00,35.0,25.0,-100.00,WSW,237,14.0,32.0,63,0.00,,,-99.99,,2013-02-12 06:42:00,
2013-02-12 01:52:00,35.0,25.0,-100.00,WSW,241,11.0,32.0,64,0.00,,,-99.99,,2013-02-12 06:52:00,
2013-02-12 02:02:00,36.0,27.0,-100.00,WSW,245,13.0,32.0,64,0.00,,,-99.99,,2013-02-12 07:02:00,
2013-02-12 02:12:00,35.0,25.0,-100.00,SW,234,12.0,32.0,64,0.00,,,-99.99,,2013-02-12 07:12:00,
2013-02-12 02:21:00,35.0,25.0,-100.00,SW,231,14.0,32.0,63,0.00,,,-99.99,,2013-02-12 07:21:00,
2013-02-12 02:32:00,35.0,25.0,-100.00,SW,223,13.0,32.0,63,0.00,,,-99.99,,2013-02-12 07:32:00,
2013-02-12 02:42:00,35.0,25.0,-100.00,SSW,211,13.0,32.0,64,0.00,,,-99.99,,2013-02-12 07:42:00,
2013-02-12 02:51:00,35.0,27.0,-100.00,SW,217,9.0,32.0,67,0.00,,,-99.99,,2013-02-12 07:51:00,
2013-02-12 03:01:00,34.0,25.0,-100.00,WSW,254,8.0,32.0,67,0.00,,,-99.99,,2013-02-12 08:01:00,
2013-02-12 03:11:00,37.0,28.0,-100.00,SW,227,7.0,32.0,67,0.00,,,-99.99,,2013-02-12 08:11:00,
2013-02-12 03:22:00,34.0,25.0,-100.00,SW,221,8.0,32.0,66,0.00,,,-99.99,,2013-02-12 08:22:00,
2013-02-12 03:32:00,34.0,25.0,-100.00,SSW,208,9.0,32.0,66,0.00,,,-99.99,,2013-02-12 08:32:00,
2013-02-12 03:42:00,34.0,25.0,-100.00,WSW,249,9.0,32.0,66,0.00,,,-99.99,,2013-02-12 08:42:00,
2013-02-12 03:52:00,34.0,25.0,-100.00,SSW,199,11.0,32.0,66,0.00,,,-99.99,,2013-02-12 08:52:00,
2013-02-12 04:02:00,33.0,23.0,-100.00,WSW,244,9.0,32.0,66,0.00,,,-99.99,,2013-02-12 09:02:00,
2013-02-12 04:11:00,33.0,23.0,-100.00,West,268,7.0,32.0,66,0.00,,,-99.99,,2013-02-12 09:11:00,
2013-02-12 04:22:00,31.0,23.0,-100.00,WSW,237,8.0,32.0,67,0.00,,,-99.99,,2013-02-12 09:22:00,
2013-02-12 04:32:00,34.0,25.0,-100.00,SW,232,9.0,32.0,67,0.00,,,-99.99,,2013-02-12 09:32:00,
2013-02-12 04:42:00,34.0,25.0,-100.00,SW,227,12.0,32.0,66,0.00,,,-99.99,,2013-02-12 09:42:00,
2013-02-12 04:52:00,33.0,25.0,-100.00,SW,235,13.0,32.0,68,0.00,,,-99.99,,2013-02-12 09:52:00,
2013-02-12 05:01:00,33.0,23.0,-100.00,WSW,255,11.0,32.0,67,0.00,,,-99.99,,2013-02-12 10:01:00,
2013-02-12 05:11:00,35.0,27.0,-100.00,SW,218,10.0,32.0,68,0.00,,,-99.99,,2013-02-12 10:11:00,
2013-02-12 05:21:00,33.0,25.0,-100.00,SSW,211,10.0,32.0,68,0.00,,,-99.99,,2013-02-12 10:21:00,
2013-02-12 05:32:00,35.0,27.0,-100.00,SW,217,11.0,32.0,67,0.00,,,-99.99,,2013-02-12 10:32:00,
2013-02-12 05:43:00,33.0,25.0,-100.00,WSW,249,7.0,32.0,68,0.00,,,-99.99,,2013-02-12 10:43:00,
2013-02-12 05:51:00,33.0,25.0,-100.00,WSW,237,7.0,32.0,68,0.00,,,-99.99,,2013-02-12 10:51:00,
2013-02-12 06:01:00,33.0,25.0,-100.00,SW,221,7.0,32.0,69,0.00,,,-99.99,,2013-02-12 11:01:00,
2013-02-12 06:11:00,34.0,27.0,-100.00,WSW,241,9.0,9.0,69,0.00,,,-99.99,,2013-02-12 11:11:00,
2013-02-12 06:22:00,33.0,25.0,-100.00,WSW,241,8.0,10.0,69,0.00,,,-99.99,,2013-02-12 11:22:00,
2013-02-12 06:32:00,34.0,27.0,-100.00,SW,223,9.0,10.0,69,0.00,,,-99.99,,2013-02-12 11:32:00,
2013-02-12 06:42:00,35.0,27.0,-100.00,SW,220,9.0,12.0,69,0.00,,,-99.99,,2013-02-12 11:42:00,
2013-02-12 06:52:00,33.0,25.0,-100.00,SW,232,9.0,12.0,69,0.00,,,-99.99,,2013-02-12 11:52:00,
2013-02-12 07:02:00,33.0,27.0,-100.00,SSW,206,7.0,12.0,71,0.00,,,-99.99,,2013-02-12 12:02:00,
2013-02-12 07:11:00,33.0,25.0,-100.00,SW,221,10.0,15.0,69,0.00,,,-99.99,,2013-02-12 12:11:00,
2013-02-12 07:22:00,32.0,25.0,-100.00,SW,230,9.0,15.0,69,0.00,,,-99.99,,2013-02-12 12:22:00,
2013-02-12 07:32:00,32.0,23.0,-100.00,SW,225,11.0,15.0,68,0.00,,,-99.99,,2013-02-12 12:32:00,
2013-02-12 07:42:00,32.0,23.0,-100.00,SW,214,8.0,15.0,69,0.00,,,-99.99,,2013-02-12 12:42:00,
2013-02-12 07:52:00,32.0,25.0,-100.00,WSW,244,9.0,15.0,69,0.00,,,-99.99,,2013-02-12 12:52:00,
2013-02-12 08:02:00,32.0,25.0,-100.00,SW,218,6.0,15.0,71,0.00,,,-99.99,,2013-02-12 13:02:00,
2013-02-12 08:11:00,34.0,27.0,-100.00,WSW,248,6.0,15.0,71,0.00,,,-99.99,,2013-02-12 13:11:00,
2013-02-12 08:22:00,32.0,25.0,-100.00,WSW,258,6.0,15.0,71,0.00,,,-99.99,,2013-02-12 13:22:00,
2013-02-12 08:32:00,33.0,25.0,-100.00,WSW,240,6.0,15.0,69,0.00,,,-99.99,,2013-02-12 13:32:00,
2013-02-12 08:42:00,34.0,25.0,-100.00,SSW,210,7.0,15.0,69,0.00,,,-99.99,,2013-02-12 13:42:00,
2013-02-12 08:52:00,32.0,25.0,-100.00,WSW,237,6.0,15.0,69,0.00,,,-99.99,,2013-02-12 13:52:00,
2013-02-12 09:01:00,33.0,25.0,-100.00,SW,231,5.0,15.0,68,0.00,,,-99.99,,2013-02-12 14:01:00,
2013-02-12 09:12:00,33.0,25.0,-100.00,WSW,241,6.0,15.0,68,0.00,,,-99.99,,2013-02-12 14:12:00,
2013-02-12 09:22:00,32.0,23.0,-100.00,WSW,240,7.0,15.0,68,0.00,,,-99.99,,2013-02-12 14:22:00,
2013-02-12 09:32:00,32.0,25.0,-100.00,SW,221,8.0,15.0,69,0.00,,,-99.99,,2013-02-12 14:32:00,
2013-02-12 09:42:00,33.0,25.0,-100.00,SW,217,6.0,15.0,68,0.00,,,-99.99,,2013-02-12 14:42:00,
2013-02-12 09:52:00,33.0,23.0,-100.00,SSW,211,7.0,15.0,67,0.00,,,-99.99,,2013-02-12 14:52:00,
2013-02-12 10:02:00,33.0,25.0,-100.00,SW,221,8.0,15.0,69,0.00,,,-99.99,,2013-02-12 15:02:00,
2013-02-12 10:11:00,32.0,25.0,-100.00,SW,220,6.0,15.0,69,0.00,,,-99.99,,2013-02-12 15:11:00,
2013-02-12 10:21:00,31.0,23.0,-100.00,SW,214,6.0,15.0,69,0.00,,,-99.99,,2013-02-12 15:21:00,
2013-02-12 10:32:00,33.0,25.0,-100.00,West,279,4.0,15.0,68,0.00,,,-99.99,,2013-02-12 15:32:00,
2013-02-12 10:42:00,33.0,25.0,-100.00,WSW,241,6.0,15.0,69,0.00,,,-99.99,,2013-02-12 15:42:00,
2013-02-12 10:52:00,33.0,25.0,-100.00,WSW,251,5.0,15.0,71,0.00,,,-99.99,,2013-02-12 15:52:00,
2013-02-12 11:01:00,32.0,25.0,-100.00,SW,214,5.0,15.0,69,0.00,,,-99.99,,2013-02-12 16:01:00,
2013-02-12 11:11:00,35.0,28.0,-100.00,SSW,208,6.0,15.0,72,0.00,,,-99.99,,2013-02-12 16:11:00,
2013-02-12 11:22:00,36.0,28.0,-100.00,WSW,244,7.0,15.0,72,0.00,,,-99.99,,2013-02-12 16:22:00,
2013-02-12 11:32:00,34.0,27.0,-100.00,SW,232,6.0,15.0,71,0.00,,,-99.99,,2013-02-12 16:32:00,
2013-02-12 11:42:00,33.0,27.0,-100.00,SW,235,6.0,15.0,72,0.00,,,-99.99,,2013-02-12 16:42:00,
2013-02-12 11:52:00,34.0,27.0,-100.00,SSW,199,8.0,15.0,71,0.00,,,-99.99,,2013-02-12 16:52:00,
2013-02-12 12:01:00,34.0,27.0,-100.00,WSW,255,9.0,15.0,71,0.00,,,-99.99,,2013-02-12 17:01:00,
2013-02-12 12:12:00,34.0,25.0,-100.00,SW,220,9.0,15.0,68,0.00,,,-99.99,,2013-02-12 17:12:00,
2013-02-12 12:21:00,36.0,27.0,-100.00,WSW,238,8.0,15.0,68,0.00,,,-99.99,,2013-02-12 17:21:00,
2013-02-12 12:32:00,35.0,25.0,-100.00,WSW,245,7.0,15.0,66,0.00,,,-99.99,,2013-02-12 17:32:00,
2013-02-12 12:42:00,35.0,27.0,-100.00,SW,234,6.0,15.0,67,0.00,,,-99.99,,2013-02-12 17:42:00,
2013-02-12 12:52:00,35.0,25.0,-100.00,WSW,238,6.0,15.0,66,0.00,,,-99.99,,2013-02-12 17:52:00,
2013-02-12 13:02:00,37.0,28.0,-100.00,WSW,238,5.0,15.0,66,0.00,,,-99.99,,2013-02-12 18:02:00,
2013-02-12 13:12:00,35.0,25.0,-100.00,WSW,238,6.0,15.0,64,0.00,,,-99.99,,2013-02-12 18:12:00,
2013-02-12 13:23:00,36.0,27.0,-100.00,SW,218,7.0,15.0,66,0.00,,,-99.99,,2013-02-12 18:23:00,
2013-02-12 13:32:00,36.0,27.0,-100.00,WSW,244,7.0,15.0,64,0.00,,,-99.99,,2013-02-12 18:32:00,
2013-02-12 13:42:00,36.0,27.0,-100.00,WSW,238,7.0,15.0,64,0.00,,,-99.99,,2013-02-12 18:42:00,
2013-02-12 13:51:00,37.0,28.0,-100.00,SW,225,8.0,15.0,66,0.00,,,-99.99,,2013-02-12 18:51:00,
2013-02-12 14:02:00,37.0,27.0,-100.00,West,268,6.0,15.0,64,0.00,,,-99.99,,2013-02-12 19:02:00,
2013-02-12 14:11:00,38.0,27.0,-100.00,WSW,241,6.0,15.0,62,0.00,,,-99.99,,2013-02-12 19:11:00,
2013-02-12 14:21:00,37.0,27.0,-100.00,WSW,240,7.0,15.0,62,0.00,,,-99.99,,2013-02-12 19:21:00,
2013-02-12 14:32:00,40.0,28.0,-100.00,WSW,238,5.0,15.0,59,0.00,,,-99.99,,2013-02-12 19:32:00,
2013-02-12 14:42:00,40.0,27.0,-100.00,WSW,252,6.0,15.0,59,0.00,,,-99.99,,2013-02-12 19:42:00,
2013-02-12 14:51:00,38.0,27.0,-100.00,WSW,251,7.0,15.0,60,0.00,,,-99.99,,2013-02-12 19:51:00,
2013-02-12 15:01:00,39.0,27.0,-100.00,SSW,204,3.0,15.0,59,0.00,,,-99.99,,2013-02-12 20:01:00,
2013-02-12 15:11:00,39.0,27.0,-100.00,South,187,4.0,15.0,58,0.00,,,-99.99,,2013-02-12 20:11:00,
2013-02-12 15:21:00,41.0,27.0,-100.00,SSW,204,4.0,15.0,56,0.00,,,-99.99,,2013-02-12 20:21:00,
2013-02-12 15:32:00,41.0,27.0,-100.00,SSW,208,6.0,15.0,56,0.00,,,-99.99,,2013-02-12 20:32:00,
2013-02-12 15:41:00,40.0,27.0,-100.00,SW,235,6.0,15.0,56,0.00,,,-99.99,,2013-02-12 20:41:00,
2013-02-12 15:52:00,40.0,27.0,-100.00,SW,225,8.0,15.0,55,0.00,,,-99.99,,2013-02-12 20:52:00,
2013-02-12 16:02:00,40.0,27.0,-100.00,SW,234,7.0,15.0,54,0.00,,,-99.99,,2013-02-12 21:02:00,
2013-02-12 16:11:00,42.0,27.0,-100.00,SW,227,6.0,15.0,54,0.00,,,-99.99,,2013-02-12 21:11:00,
2013-02-12 16:21:00,42.0,27.0,-100.00,SSW,208,7.0,15.0,54,0.00,,,-99.99,,2013-02-12 21:21:00,
2013-02-12 16:32:00,41.0,27.0,-100.00,WSW,245,7.0,15.0,55,0.00,,,-99.99,,2013-02-12 21:32:00,
2013-02-12 16:42:00,42.0,28.0,-100.00,SW,220,7.0,15.0,55,0.00,,,-99.99,,2013-02-12 21:42:00,
2013-02-12 16:51:00,42.0,28.0,-100.00,SW,214,8.0,15.0,54,0.00,,,-99.99,,2013-02-12 21:51:00,
2013-02-12 17:01:00,42.0,28.0,-100.00,WSW,247,6.0,15.0,54,0.00,,,-99.99,,2013-02-12 22:01:00,
2013-02-12 17:12:00,41.0,27.0,-100.00,SW,231,6.0,15.0,54,0.00,,,-99.99,,2013-02-12 22:12:00,
2013-02-12 17:21:00,41.0,27.0,-100.00,SW,227,8.0,15.0,55,0.00,,,-99.99,,2013-02-12 22:21:00,
2013-02-12 17:32:00,42.0,27.0,-100.00,SW,216,7.0,15.0,54,0.00,,,-99.99,,2013-02-12 22:32:00,
2013-02-12 17:42:00,42.0,27.0,-100.00,SSW,206,5.0,15.0,54,0.00,,,-99.99,,2013-02-12 22:42:00,
2013-02-12 17:52:00,41.0,27.0,-100.00,SW,231,6.0,15.0,55,0.00,,,-99.99,,2013-02-12 22:52:00,
2013-02-12 18:01:00,40.0,28.0,-100.00,SSW,211,2.0,15.0,60,0.00,,,-99.99,,2013-02-12 23:01:00,
2013-02-12 18:11:00,40.0,28.0,-100.00,SE,145,1.0,15.0,62,0.00,,,-99.99,,2013-02-12 23:11:00,
2013-02-12 18:21:00,38.0,28.0,-100.00,SSW,201,0.0,15.0,66,0.00,,,-99.99,,2013-02-12 23:21:00,
2013-02-12 18:32:00,38.0,28.0,-100.00,SSW,192,0.0,15.0,66,0.00,,,-99.99,,2013-02-12 23:32:00,
2013-02-12 18:42:00,37.0,28.0,-100.00,West,269,0.0,15.0,69,0.00,,,-99.99,,2013-02-12 23:42:00,
2013-02-12 18:52:00,35.0,28.0,-100.00,WSW,255,0.0,15.0,71,0.00,,,-99.99,,2013-02-12 23:52:00,
2013-02-12 19:02:00,35.0,28.0,-100.00,West,271,0.0,15.0,72,0.00,,,-99.99,,2013-02-13 00:02:00,
2013-02-12 19:11:00,34.0,27.0,-100.00,WSW,256,0.0,15.0,72,0.00,,,-99.99,,2013-02-13 00:11:00,
2013-02-12 19:22:00,34.0,27.0,-100.00,West,269,0.0,15.0,73,0.00,,,-99.99,,2013-02-13 00:22:00,
2013-02-12 19:32:00,34.0,28.0,-100.00,East,90,0.0,15.0,76,0.00,,,-99.99,,2013-02-13 00:32:00,
2013-02-12 19:42:00,33.0,27.0,-100.00,North,7,0.0,15.0,76,0.00,,,-99.99,,2013-02-13 00:42:00,
2013-02-12 19:52:00,33.0,27.0,-100.00,NNW,341,0.0,15.0,77,0.00,,,-99.99,,2013-02-13 00:52:00,
2013-02-12 20:01:00,31.0,25.0,-100.00,NNW,341,0.0,15.0,77,0.00,,,-99.99,,2013-02-13 01:01:00,
2013-02-12 20:11:00,33.0,28.0,-100.00,WSW,238,0.0,15.0,78,0.00,,,-99.99,,2013-02-13 01:11:00,
2013-02-12 20:21:00,31.0,27.0,-100.00,West,261,0.0,15.0,78,0.00,,,-99.99,,2013-02-13 01:21:00,
2013-02-12 20:32:00,31.0,25.0,-100.00,SW,228,0.0,15.0,78,0.00,,,-99.99,,2013-02-13 01:32:00,
2013-02-12 20:42:00,31.0,27.0,-100.00,WSW,258,0.0,15.0,80,0.00,,,-99.99,,2013-02-13 01:42:00,
2013-02-12 20:52:00,31.0,27.0,-100.00,NNE,19,0.0,15.0,81,0.00,,,-99.99,,2013-02-13 01:52:00,
2013-02-12 21:01:00,31.0,27.0,-100.00,NNE,19,0.0,15.0,81,0.00,,,-99.99,,2013-02-13 02:01:00,
2013-02-12 21:11:00,31.0,28.0,-100.00,NNE,26,0.0,15.0,84,0.00,,,-99.99,,2013-02-13 02:11:00,
2013-02-12 21:22:00,31.0,28.0,-100.00,NNE,29,0.0,15.0,85,0.00,,,-99.99,,2013-02-13 02:22:00,
2013-02-12 21:32:00,30.0,27.0,-100.00,NNE,28,0.0,15.0,85,0.00,,,-99.99,,2013-02-13 02:32:00,
2013-02-12 21:42:00,31.0,28.0,-100.00,NNE,26,0.0,15.0,85,0.00,,,-99.99,,2013-02-13 02:42:00,
2013-02-12 21:52:00,31.0,28.0,-100.00,North,354,0.0,15.0,86,0.00,,,-99.99,,2013-02-13 02:52:00,
2013-02-12 22:01:00,30.0,27.0,-100.00,WSW,251,0.0,15.0,86,0.00,,,-99.99,,2013-02-13 03:01:00,
2013-02-12 22:12:00,30.0,28.0,-100.00,West,272,0.0,15.0,86,0.00,,,-99.99,,2013-02-13 03:12:00,
2013-02-12 22:21:00,30.0,28.0,-100.00,NW,314,0.0,15.0,88,0.00,,,-99.99,,2013-02-13 03:21:00,
2013-02-12 22:32:00,29.0,27.0,-100.00,WNW,286,0.0,15.0,88,0.00,,,-99.99,,2013-02-13 03:32:00,
2013-02-12 22:42:00,29.0,27.0,-100.00,WNW,286,0.0,15.0,88,0.00,,,-99.99,,2013-02-13 03:42:00,
2013-02-12 22:51:00,29.0,27.0,-100.00,West,279,0.0,15.0,89,0.00,,,-99.99,,2013-02-13 03:51:00,
2013-02-12 23:01:00,28.0,25.0,-100.00,West,279,0.0,15.0,89,0.00,,,-99.99,,2013-02-13 04:01:00,
2013-02-12 23:11:00,27.0,25.0,-100.00,NNE,32,0.0,15.0,89,0.00,,,-99.99,,2013-02-13 04:11:00,
2013-02-12 23:21:00,27.0,25.0,-100.00,NNE,15,0.0,15.0,89,0.00,,,-99.99,,2013-02-13 04:21:00,
2013-02-12 23:32:00,27.0,25.0,-100.00,North,358,0.0,15.0,89,0.00,,,-99.99,,2013-02-13 04:32:00,
2013-02-12 23:42:00,29.0,27.0,-100.00,NNE,33,0.0,15.0,90,0.00,,,-99.99,,2013-02-13 04:42:00,
2013-02-12 23:51:00,28.0,27.0,-100.00,NNW,334,0.0,15.0,90,0.00,,,-99.99,,2013-02-13 04:51:00,